Find Starlink 37905

NORAD ID: 69946 Int'l Des: 2026-157 Owner: SPXS Country: US Constellation: starlink operational
LEOCIRCULAR

当前视图

正在加载3D地球...

About Starlink 37905

Starlink 37905 (NORAD 69946) is a starlink constellation satellite (v2 mini) launched Jul 9, 2026 by SPXS of US. It operates in LEO, CIRCULAR orbit with a mass of 575.00 kg.

即将过境

Passes for default location (London). Set your location on the main map for personalized predictions.

高度历史

Loading altitude history...

两行轨道根数

1 69946U 26157D 26237.33286466 .00016472 00000-0 49767-3 0 9999
2 69946 53.1604 96.1826 0001782 87.8667 272.2539 15.34393988 7355
Epoch: Aug 25, 2026 • Age: 22 hours

当前状态

高度 466.6 km
远地点 / 近地点 N/A
速度 7.63 km/s
星下点 -13.28°S, 20.27°E
发射日期 Jul 9, 2026
运行时间 0.1 years
类型 internet

技术详情

分类 Payload
质量 575.00 kg
干质量 530.00 kg
总质量 575.00 kg
长度 0.30 m
直径 4.10 m
跨度 29.00 m
形状 Box + pan
制造商 SPXS
平台类型 Starlink V2MO
阶段状态 In Orbit
所有者/国家 SPXS/US

Most Searched